Zurück zum Katalog

STARLINK-35541

AktivKommunikationVLEO
NORAD 66235·PAYLOAD·🇺🇸 United States

Gestartet Oct 29, 2025 von Cape Canaveral Space Force Station

Loading…

Nächste Überflüge (nächste 24 Stunden)

TLE

AktuellSource: CelesTrak SupGP

Epoche: Sep 14, 2026, 14:40 UTC

1 66235C 25245B   26257.61159722  .00034901  00000+0  11221-2 0  2577
2 66235  53.1561 125.3042 0001404  93.3805   7.1818 15.31689161    16

Verfolge STARLINK-35541 in Echtzeit mit AllMySat

Download on the App Store